EW4925 Weather Reports


time (UTC)temp
F
wind
direction
speed
knots
gust
knots
rain 1hr
in
rain 24hr
in
rain mn
in
humidity
%
barometer
mb
20260505064121 43 79 12.2 18.2 0.02 0.23 0.02 87
20260505062622 43 97 13.9 20.0 0.02 0.23 0.02 89
20260505061121 44 92 7.8 12.2 0.01 0.22 0.01 88
20260505055622 44 63 2.6 9.6 0.00 0.21 0.21 85
20260505054121 44 71 11.3 15.6 0.00 0.21 0.21 84
20260505052620 44 98 13.0 18.2 0.00 0.21 0.21 85
20260505051121 43 82 13.9 19.1 0.02 0.21 0.21 87
20260505041121 44 88 0.0 10.4 0.17 0.19 0.20 89
20260505035621 45 272 0.0 0.0 0.09 0.11 0.12 89
20260505034120 46 272 0.0 0.0 0.04 0.06 0.06 88
20260505032617 47 292 0.9 6.1 0.01 0.03 0.03 85
20260505031117 47 282 0.0 6.1 0.00 0.02 0.02 82
20260505025615 48 324 0.0 0.9 0.00 0.02 0.02 79
20260505024114 48 54 0.0 2.6 0.00 0.02 0.02 76
20260505023344 49 220 0.0 4.3 0.00 0.02 0.02 73
20260505021115 50 248 0.9 7.8 0.00 0.02 0.02 72
20260505015608 50 82 0.0 0.0 0.00 0.02 0.02 70
20260505014110 50 78 8.7 13.0 0.01 0.02 0.02 68
20260505012610 50 71 7.0 14.8 0.01 0.02 0.02 67
20260505011109 51 42 6.1 11.3 0.01 0.02 0.02 66
20260505005609 53 341 0.0 12.2 0.01 0.02 0.02 65
20260505004107 54 342 0.9 13.0 0.00 0.01 0.01 57
20260505002607 55 100 9.6 14.8 0.00 0.01 0.01 50
20260505001108 56 91 10.4 17.4 0.00 0.01 0.01 47
20260504235607 58 87 12.2 16.5 0.00 0.01 0.01 45
20260504234838 60 104 7.8 14.8 0.00 0.01 0.01 42
20260504232607 62 113 12.2 20.0 0.00 0.01 0.01 40
20260504231112 60 120 1.7 9.6 0.01 0.01 0.01 39
20260504231108 62 335 1.7 12.2 0.01 0.01 0.01 39
20260504224107 57 162 4.3 12.2 0.01 0.01 0.01 44
20260504222608 58 34 11.3 21.7 0.01 0.01 0.01 52
20260504221106 61 290 5.2 14.8 0.00 0.00 0.00 37
20260504215608 62 304 8.7 14.8 0.00 0.00 0.00 35
20260504214101 64 322 3.5 14.8 0.00 0.00 0.00 31
20260504212601 65 313 0.9 10.4 0.00 0.00 0.00 33
20260504211102 62 40 6.1 14.8 0.00 0.00 0.00 38
20260504210332 60 96 13.9 19.1 0.00 0.00 0.00 47
20260504204102 56 80 13.9 21.7 0.00 0.00 0.00 58
20260504202555 54 93 14.8 21.7 0.00 0.00 0.00 56
20260504201100 60 69 9.6 20.0 0.00 0.00 0.00 37
20260504201055 56 93 14.8 22.6 0.00 0.00 0.00 47
20260504194054 63 325 5.2 12.2 0.00 0.00 0.00 34
20260504192555 63 330 3.5 18.2 0.00 0.00 0.00 33
20260504191055 65 315 11.3 20.0 0.00 0.00 0.00 32
20260504185556 61 299 10.4 20.0 0.00 0.00 0.00 35
20260504184825 63 269 11.3 20.0 0.00 0.00 0.00 33
20260504184208 63 286 7.0 13.9 0.00 0.00 0.00 32
20260504182709 64 277 4.3 9.6 0.00 0.00 0.00 31
20260504175555 65 316 2.6 12.2 0.00 0.00 0.00 31
20260504174055 63 280 7.8 14.8 0.00 0.00 0.00 35
20260504172554 62 243 7.0 24.3 0.00 0.00 0.00 37
20260504171054 60 287 7.0 14.8 0.00 0.00 0.00 37
20260504151100 53 244 0.0 6.1 0.00 0.00 0.00 52
20260504151055 54 209 0.0 0.9 0.00 0.00 0.00 53
20260504141054 50 138 0.0 0.9 0.00 0.00 0.00 55
20260504110310 48 148 9.6 13.9 0.00 0.00 0.00 63
20260504081029 51 209 8.7 20.9 0.00 0.00 0.00 51